Weather in Kutsivka

Ukraine / Kirovohrad Region     48°18′52″N   32°47′27″E
temp.,
°C
wind,
m/s
gust,
m/s
humid.,
%
clouds,
%
prec.,
mm/h
press.,
hPa
HPBL,
m
18 may, tue
tue1800:00+14s339039 0.0 100533
03:00+13ssw379683 0.2 1004155
06:00+12s389561 0.2 1004235
09:00+17s577699 0.6 1004571
12:00+20sse786049 0.3 10021595
15:00+17s7107196 2.1 10021063
18:00+15s7118579 1.6 1001707
21:00+13s6138949 3.0 1001389
19 may, wed
wed1900:00+11sse48955 0.0 1001190
03:00+10sse49954 0.0 1001188
06:00+9sse48965 0.0 1002260
09:00+14s688371 0.0 1002745
12:00+15s687284 0.3 10031088
15:00+15s558091 0.6 1003806
18:00+14wnw678354 1.4 1004672
21:00+12wnw7129060 1.4 1006491
20 may, thu
thu2000:00+11w61091100 0.0 1007593
03:00+11w6118984 0.0 1008586
06:00+10w512915 0.0 1009336
09:00+15w576795 0.0 1010744
12:00+19sw565458 0.0 10101726
15:00+17sw4673100 0.3 1010542
18:00+13wnw2493100 2.3 1011160
21:00+12ne2596100 4.0 1011191
21 may, fri
fri2100:00+12ne489698 5.2 1011316
03:00+12ne61196100 5.2 1010391
06:00+12ne61395100 0.0 1010470
09:00+15ene6882100 0.0 1009698
12:00+18e4472100 0.1 10091044
15:00+20nne2263100 0.1 1009982
18:00+18n678169 0.2 1009483
21:00+14n7119478 0.2 1011375
22 may, sat
sat2200:00+13n71193100 0.0 1011447
03:00+13n61093100 0.0 1011403
06:00+13n6109392 0.0 1012419
09:00+15n81085100 0.0 1012582
12:00+18nne787792 0.0 1013694
15:00+20nne5567100 0.1 10131185
18:00+19nne5572100 0.0 1013916
21:00+16nne47831 0.0 1013181